[[{"header":{"parameterUnit":"m.s-1","parameterCategory":1,"la1":30.2991,"la2":30.254,"lo1":-89.0895,"lo2":-89.0444,"dy":0.0017,"dx":0.0017,"nx":28,"ny":28,"refTime":"2025-03-23T03:00:00:Z","depth":0,"parameterNumber":2,"parameterNumberName":"U-component_of_WINDS"},"data":[0,0,0,0,0,0,0,0,0,0,0,0,0,0,0,0,0,0,0,0,0,0,0,0,0,0,0,0,0,0,0,0,0,0,0,0,0,0,0,0,0,0,0,0,0,0,0,0,0,0,0,0,0,0,0,0,0,0,0.7893,0.7894,0,0.8006,0.8007,0.8008,0.8048,0.8048,0.8047,0.8047,0.816,0.8163,0.8167,0,0,0,0,0,0,0,0,0,0,0,0,0,0.7708,0.7711,0.7892,0.7894,0.7895,0.8005,0.8007,0.8009,0.8048,0.8048,0.8047,0.8047,0.8159,0.8163,0.8167,0,0,0,0,0,0,0,0,0,0,0,0,0,0.7801,0.7712,0.7892,0.7928,0.7933,0.8005,0.8007,0.8009,0.8048,0.8048,0.8047,0.8047,0.8158,0.8163,0.8168,0.8211,0,0,0.8183,0.8185,0,0,0,0,0,0,0,0,0.7796,0.7808,0.7922,0.7926,0.7931,0.8012,0.7983,0.8077,0.8048,0.8004,0.8047,0.8046,0.8111,0.812,0.8143,0.8217,0.8222,0.8184,0.8187,0.8189,0.819,0,0,0,0,0,0,0,0.7789,0.7803,0.7937,0.7923,0.7929,0.7938,0.7951,0.8001,0.806,0.8008,0.8011,0.8024,0.8114,0.8138,0.8146,0.8223,0.8183,0.8188,0.8191,0.8193,0.8339,0.834,0,0,0,0,0,0,0.7777,0.7797,0.7934,0.7941,0.7861,0.7942,0.7956,0.7987,0.8059,0.807,0.8025,0.8026,0.8129,0.814,0.815,0.8206,0.8189,0.8194,0.8197,0.8338,0.8339,0.834,0,0,0,0,0,0,0.7773,0.7789,0.7929,0.787,0.7888,0.7946,0.798,0.7989,0.8013,0.8072,0.8082,0.8039,0.8129,0.8142,0.8196,0.821,0.8196,0.8201,0.8337,0.8338,0.8339,0.8318,0,0,0,0,0,0,0.7767,0.7787,0.7805,0.787,0.7891,0.7974,0.7981,0.7992,0.8022,0.8025,0.8088,0.8098,0.813,0.8188,0.8201,0.8217,0.8205,0.8336,0.8338,0.8339,0.8317,0.8318,0.8319,0,0,0,0,0,0.7761,0.7794,0.7806,0.7822,0.7915,0.7975,0.7987,0.8024,0.8023,0.8041,0.8079,0.8096,0.8207,0.8193,0.8208,0.8226,0.8335,0.8337,0.8339,0.8317,0.8318,0.8319,0,0,0,0,0,0,0.7727,0.7803,0.7817,0.7872,0.7917,0.7981,0.8005,0.8024,0.8069,0.8069,0.8112,0.8126,0.8176,0.8206,0.819,0.8272,0.8272,0.8277,0.825,0.8251,0.8252,0.8243,0.8209,0,0,0,0,0,0.7726,0.777,0.7833,0.7875,0.7897,0.7947,0.7975,0.8,0.8047,0.8066,0.8108,0.8152,0.8198,0.8226,0.8271,0.8322,0.8336,0.8342,0.8342,0.8342,0.8346,0.8375,0.8378,0.8346,0.8346,0.8346,0,0,0.7725,0.7772,0.7796,0.787,0.7908,0.795,0.7963,0.8008,0.804,0.8073,0.8126,0.8158,0.8211,0.8263,0.8288,0.829,0.8358,0.8345,0.8344,0.8348,0.8377,0.838,0.8383,0.8347,0.8347,0.8347,0,0,0.7744,0.7784,0.7824,0.7862,0.7919,0.7952,0.7961,0.8024,0.8046,0.8101,0.8127,0.8165,0.8241,0.8278,0.8307,0.834,0.8357,0.8354,0.8356,0.8384,0.8387,0.8389,0.8401,0.8405,0.8357,0.8357,0.8357,0,0.7734,0.7801,0.7841,0.7885,0.7917,0.795,0.799,0.8024,0.8093,0.8113,0.8114,0.8212,0.825,0.8311,0.8319,0.8342,0.8353,0.8346,0.8383,0.8386,0.8389,0.8401,0.8405,0.8356,0.8356,0.8356,0.8356,0,0.7786,0.7832,0.7857,0.7924,0.7958,0.8,0.8046,0.8076,0.8098,0.813,0.8185,0.8232,0.8287,0.8303,0.8325,0.8368,0.8367,0.8375,0.8376,0.8391,0.8402,0.8407,0.8355,0.8355,0.8356,0.8356,0,0,0.7787,0.7876,0.7884,0.7915,0.7981,0.8017,0.8059,0.8114,0.8139,0.8185,0.8221,0.8286,0.8294,0.8327,0.8353,0.8377,0.84,0.8383,0.8384,0.8384,0.845,0.8443,0.8448,0.8412,0.8413,0.8414,0.8446,0,0.7814,0.7894,0.7931,0.7994,0.8036,0.8068,0.8106,0.815,0.8182,0.8221,0.8256,0.8301,0.8309,0.8329,0.8355,0.8392,0.8414,0.839,0.8446,0.8447,0.8431,0.8454,0.8447,0.8474,0.845,0.8451,0.8452,0,0.7856,0.7904,0.7971,0.8032,0.8051,0.8084,0.8137,0.8175,0.8226,0.8247,0.8284,0.8309,0.8355,0.8353,0.8416,0.8399,0.8424,0.8445,0.8447,0.8453,0.845,0.846,0.8484,0.8488,0.8459,0.8459,0.8458,0,0.7849,0.793,0.798,0.8006,0.8078,0.8101,0.8132,0.8182,0.8212,0.8259,0.8279,0.8329,0.8356,0.8395,0.8433,0.8428,0.8492,0.8493,0.851,0.8509,0.8522,0.852,0.855,0.8539,0.8538,0.8538,0.8538,0,0.7876,0.7915,0.7978,0.8009,0.8054,0.8097,0.814,0.8174,0.8218,0.8255,0.8286,0.832,0.8368,0.8408,0.8438,0.8486,0.8498,0.8516,0.8523,0.8513,0.8511,0.853,0.8528,0.854,0.8539,0.8539,0.8539,0,0.7875,0.7919,0.7976,0.8041,0.8058,0.8089,0.8143,0.8174,0.8208,0.8255,0.8268,0.8321,0.8369,0.8411,0.8475,0.8495,0.8544,0.8553,0.8527,0.8531,0.8546,0.8544,0.8588,0.8596,0.8579,0.858,0.858,0,0.7889,0.792,0.7989,0.8017,0.8048,0.8092,0.8124,0.8167,0.8198,0.8258,0.8282,0.8333,0.8376,0.8453,0.8496,0.8545,0.8555,0.8567,0.8563,0.8551,0.8555,0.8552,0.8556,0.8567,0.8567,0.8567,0.8567,0,0.7908,0.7929,0.7974,0.8027,0.8064,0.8107,0.8151,0.8172,0.8223,0.8257,0.8308,0.8342,0.8408,0.8458,0.8512,0.8543,0.8563,0.8568,0.8575,0.8564,0.8548,0.8557,0.8527,0.8567,0.8567,0.8567,0.8567,0.8567,0.7915,0.7945,0.7998,0.8047,0.8085,0.8126,0.8158,0.8196,0.824,0.8297,0.832,0.8372,0.8421,0.8496,0.8527,0.8568,0.8571,0.858,0.8583,0.8584,0.8582,0.8542,0.8578,0.8578,0.8578,0.8578,0.8578,0,0.7936,0.7972,0.8017,0.8078,0.8117,0.8134,0.8184,0.8214,0.826,0.8305,0.8347,0.8406,0.8455,0.8502,0.8553,0.8577,0.8587,0.8589,0.8587,0.8594,0.8577,0.8566,0.8579,0.8579,0.8579,0.8579,0.8579,0.8579,0.7951,0.8002,0.8029,0.8098,0.8134,0.8186,0.8213,0.825,0.8286,0.835,0.8392,0.8423,0.8469,0.8524,0.8569,0.8582,0.8599,0.8598,0.8613,0.8596,0.8595,0.8594,0.8584,0.8601,0.8601,0.8626,0.8626,0.8627]},{"header":{"parameterUnit":"m.s-1","parameterCategory":1,"la1":30.2991,"la2":30.254,"lo1":-89.0895,"lo2":-89.0444,"dy":0.0017,"dx":0.0017,"nx":28,"ny":28,"refTime":"2025-03-23T03:00:00:Z","depth":0,"parameterNumber":3,"parameterNumberName":"V-component_of_WINDS"},"data":[0,0,0,0,0,0,0,0,0,0,0,0,0,0,0,0,0,0,0,0,0,0,0,0,0,0,0,0,0,0,0,0,0,0,0,0,0,0,0,0,0,0,0,0,0,0,0,0,0,0,0,0,0,0,0,0,0,0,4.453,4.453,0,4.4525,4.4525,4.4525,4.4466,4.4464,4.4463,4.4461,4.4457,4.4458,4.4459,0,0,0,0,0,0,0,0,0,0,0,0,0,4.4488,4.4489,4.453,4.453,4.453,4.4525,4.4525,4.4525,4.4466,4.4464,4.4462,4.4461,4.4456,4.4458,4.4459,0,0,0,0,0,0,0,0,0,0,0,0,0,4.4497,4.4489,4.453,4.45,4.4497,4.4526,4.4525,4.4525,4.4466,4.4464,4.4462,4.446,4.4456,4.4457,4.4459,4.4516,0,0,4.4465,4.4466,0,0,0,0,0,0,0,0,4.4497,4.4499,4.4504,4.4502,4.4499,4.4494,4.4509,4.4522,4.4467,4.4478,4.4461,4.4459,4.4471,4.4471,4.4475,4.4516,4.4516,4.4465,4.4467,4.4467,4.4468,0,0,0,0,0,0,0,4.4496,4.4498,4.4528,4.4505,4.4501,4.4487,4.4485,4.4511,4.4487,4.4477,4.4473,4.4473,4.4469,4.4474,4.4475,4.4516,4.4465,4.4467,4.4468,4.4469,4.4603,4.4606,0,0,0,0,0,0,4.45,4.4498,4.4528,4.4528,4.4492,4.4489,4.4488,4.4498,4.4487,4.4483,4.4475,4.447,4.4472,4.4473,4.4474,4.454,4.4467,4.4469,4.447,4.4601,4.4604,4.4607,0,0,0,0,0,0,4.4499,4.4503,4.4529,4.4512,4.4514,4.4492,4.4504,4.4499,4.4504,4.4485,4.4481,4.4484,4.447,4.4472,4.4506,4.4539,4.447,4.4472,4.4598,4.4602,4.4605,4.4672,0,0,0,0,0,0,4.4498,4.4503,4.4524,4.4513,4.4515,4.4561,4.4506,4.45,4.4507,4.4501,4.4493,4.4489,4.4468,4.4504,4.4508,4.4541,4.4473,4.4595,4.46,4.4604,4.4667,4.4678,4.4687,0,0,0,0,0,4.4497,4.4543,4.4526,4.4529,4.4541,4.4563,4.4564,4.4539,4.451,4.4531,4.4519,4.4489,4.4535,4.4508,4.4512,4.4546,4.4593,4.4598,4.4604,4.4663,4.4676,4.4687,0,0,0,0,0,0,4.4558,4.4541,4.4521,4.4566,4.4566,4.4553,4.4578,4.4554,4.4562,4.4556,4.4525,4.4524,4.4563,4.4558,4.4528,4.46,4.4559,4.4565,4.4602,4.4614,4.4624,4.4624,4.4475,0,0,0,0,0,4.4577,4.4596,4.458,4.4621,4.4622,4.4601,4.4609,4.459,4.4589,4.4589,4.4579,4.458,4.4594,4.4604,4.4616,4.4667,4.4664,4.4692,4.4702,4.471,4.4716,4.4742,4.4754,4.4624,4.4624,4.4624,0,0,4.4616,4.4609,4.4623,4.4633,4.4631,4.4651,4.4601,4.4624,4.4639,4.4592,4.4624,4.4618,4.4616,4.4659,4.4677,4.4656,4.4751,4.4717,4.4724,4.4725,4.4749,4.4761,4.4772,4.4628,4.4627,4.4627,0,0,4.4697,4.4694,4.4727,4.4727,4.4725,4.471,4.4719,4.4709,4.4703,4.4735,4.47,4.4717,4.4743,4.4743,4.4746,4.4829,4.4802,4.4834,4.4886,4.4912,4.4922,4.4931,4.4959,4.497,4.484,4.484,4.484,0,4.4746,4.4774,4.4748,4.4773,4.4779,4.4738,4.4772,4.4773,4.4775,4.4779,4.4756,4.4787,4.4783,4.4825,4.4846,4.485,4.4858,4.4834,4.4922,4.4931,4.4939,4.4966,4.4977,4.4844,4.4844,4.4843,4.4843,0,4.4834,4.4855,4.4882,4.4885,4.4894,4.4924,4.4902,4.4914,4.4894,4.4883,4.4916,4.491,4.492,4.4929,4.491,4.4969,4.4956,4.4928,4.4885,4.4956,4.4981,4.4991,4.485,4.4848,4.4847,4.4846,0,0,4.4952,4.4941,4.4952,4.4953,4.4948,4.4963,4.4992,4.5002,4.5013,4.5016,4.5039,4.5062,4.5036,4.504,4.5021,4.5044,4.511,4.5013,4.5013,4.5031,4.5173,4.5194,4.5206,4.5092,4.5094,4.5095,4.5173,0,4.503,4.5077,4.5054,4.5104,4.5122,4.5085,4.5109,4.5109,4.51,4.5114,4.5103,4.512,4.5085,4.5087,4.5108,4.5097,4.5138,4.5092,4.5112,4.5113,4.5113,4.5219,4.5241,4.5314,4.5183,4.5185,4.5186,0,4.5126,4.5134,4.5185,4.5178,4.5185,4.5207,4.5215,4.5229,4.5229,4.522,4.5225,4.5201,4.5228,4.5187,4.5224,4.5193,4.5201,4.5197,4.5199,4.5199,4.5153,4.5221,4.5337,4.5348,4.5201,4.52,4.5199,0,4.5206,4.523,4.5263,4.5266,4.5258,4.5274,4.5272,4.5269,4.5277,4.5284,4.5289,4.5299,4.5305,4.5313,4.5293,4.5265,4.5333,4.529,4.5326,4.5326,4.534,4.534,4.5458,4.5347,4.5347,4.5347,4.5347,0,4.5295,4.5328,4.5299,4.532,4.5356,4.533,4.5367,4.536,4.5358,4.5377,4.5345,4.5364,4.5336,4.5352,4.5336,4.5369,4.5372,4.5365,4.5361,4.5368,4.5368,4.5371,4.5365,4.535,4.5349,4.5349,4.5348,0,4.539,4.5372,4.5407,4.5397,4.5395,4.5422,4.5413,4.5432,4.5421,4.5445,4.5449,4.5431,4.5448,4.5429,4.5444,4.5434,4.5478,4.5466,4.5478,4.5474,4.5511,4.5508,4.5635,4.565,4.5531,4.5532,4.5533,0,4.5447,4.5471,4.5464,4.5475,4.5474,4.5491,4.5499,4.5475,4.5485,4.5487,4.5505,4.552,4.553,4.5559,4.5547,4.5559,4.5546,4.559,4.5548,4.5554,4.5546,4.5545,4.5547,4.5598,4.56,4.5601,4.5602,0,4.555,4.554,4.5553,4.5563,4.5573,4.558,4.5585,4.5595,4.557,4.5582,4.56,4.5608,4.5624,4.5638,4.5647,4.5644,4.5619,4.5616,4.5624,4.5631,4.5637,4.5634,4.5501,4.5613,4.5611,4.5611,4.561,4.561,4.5627,4.5647,4.5645,4.566,4.5661,4.5666,4.5684,4.5675,4.5688,4.5699,4.5685,4.5706,4.5705,4.5714,4.5715,4.5731,4.5712,4.5725,4.5728,4.5731,4.5737,4.5635,4.5732,4.5732,4.5732,4.5731,4.5731,0,4.5727,4.5725,4.5739,4.5746,4.5759,4.5735,4.5738,4.575,4.5769,4.5771,4.5782,4.5801,4.5816,4.5806,4.5818,4.5833,4.5821,4.5837,4.5835,4.5834,4.5753,4.5744,4.5845,4.5845,4.5845,4.5845,4.5845,4.5845,4.5781,4.5814,4.5804,4.5837,4.5834,4.5854,4.5859,4.5863,4.5864,4.5888,4.5899,4.5893,4.589,4.5901,4.5914,4.591,4.5916,4.5935,4.5927,4.5851,4.584,4.5829,4.582,4.5937,4.5937,4.6007,4.6008,4.6008]}]]